Hourly Data Report for January 18, 2022

BANCROFT AUTO
ONTARIO
Current Station Operator: ECCC - MSC

45°04'17.000" N
77°52'44.000" W
330.70 m
616I001
71294
WRK

Download Data

Hourly Data (January 2022)
Hourly Data Report for January 18, 2022
TIME
LST
Temp Definition
°C
Dew Point Definition
°C
Rel Hum Definition
%
Precip. Amount Definition
mm

Wind Dir Definition
10's deg

Wind Spd Definition
km/h
Visibility Definition
km
Stn Press Definition
kPa
Hmdx Definition


Wind Chill Definition


Weather Definition


00:00 -9.2 -12.8 75 0.0 33 10   96.08   -14 LegendNANA
01:00 -9.6 -13.0 77 0.0 33 10   96.17   -15 LegendNANA
02:00 -9.9 -13.5 75 0.0 31 14   96.31   -16 LegendNANA
03:00 -10.8 -14.3 75 0.0 31 11   96.44   -17 LegendNANA
04:00 -11.6 -15.6 73 0.0 32 10   96.52   -17 LegendNANA
05:00 -12.4 -16.1 74 0.0 32 10   96.64   -18 LegendNANA
06:00 -13.6 -17.5 73 0.0 33 14   96.79   -21 LegendNANA
07:00 -14.8 -18.5 73 0.0 29 12   96.95   -22 LegendNANA
08:00 -16.3 -19.4 77 0.0 31 8   97.10   -22 LegendNANA
09:00 -16.8 -20.5 73 0.0 30 12   97.21   -24 LegendNANA
10:00 -16.4 -21.1 67 0.0 32 12   97.35   -24 LegendNANA
11:00 -15.6 -21.6 60 0.0 30 9   97.42   -22 LegendNANA
12:00 -14.7 -22.3 52 0.0 30 11   97.47   -21 LegendNANA
13:00 -13.6 -22.5 47 0.0 28 7   97.50   -18 LegendNANA
14:00 -12.9 -22.3 45 0.0 30 8   97.53   -18 LegendNANA
15:00 -12.7 -22.8 43 0.0 31 7   97.58   -17 LegendNANA
16:00 -13.5 -20.0 58 0.0 26 2   97.61   -15 LegendNANA
17:00 -17.2 -20.4 76 0.0 0 1   97.60   -18 LegendNANA
18:00 -20.3 -22.5 83 0.0 0 1   97.61   -21 LegendNANA
19:00 -20.8 -23.2 81 0.0 0 1   97.64   -22 LegendNANA
20:00 -19.4 -21.6 83 0.0   0   97.60     LegendNANA
21:00 -18.1 -20.4 82 0.0   0   97.56     LegendNANA
22:00 -15.5 -18.2 79 0.0 18 1   97.41   -16 LegendNANA
23:00 -14.0 -18.5 69 0.0 15 5   97.33   -17 LegendNANA

Notes on Data Quality.

Legend

  • E = Estimated
  • M = Missing
  • NA = Not Available*
  • [empty] = Indicates an unobserved value
Date modified: